User: anonymous   Login
Location: Beaurecueil
(43.5122°N, 5.5450°E)
Time: 13:09:57
(UTC+00:00)
Language:

CZ-2C R/B - Orbit

View from above orbital plane
View from above orbital plane
View from above satellite
View from above satellite

Ground track
Ground track

The orbit data is extracted from the following two-line orbital elements,

1 43173U 18011E   20333.46501147  .00004372  00000-0  12642-3 0  9992
2 43173  34.9683 121.1057 0142151  55.7633 305.6459 15.25541832158476
Epoch (UTC): 28 November 2020 11:09:36
Eccentricity: 0.0142151
inclination: 34.9683°
perigee height: 391 km
apogee height: 587 km
right ascension of ascending node: 121.1057°
argument of perigee: 55.7633°
revolutions per day: 15.25541832
mean anomaly at epoch: 305.6459°
orbit number at epoch: 15847

The dashed part of the orbit path shows where the satellite is in the earth's shadow,  

DLR